Biloxi, MS

2:03 AM CDT on April 28, 2017 (GMT -0500)
Keesler Air Force Base

Weather History for KBIX - November, 2011

Change the Weather History Date:

Monday, November 21, 2011

  Actual Average Record
Temperature  
Mean Temperature 72 °F -  
Max Temperature 78 °F 68 °F 78 °F (1996)
Min Temperature 67 °F 49 °F 34 °F (1951)
Cooling Degree Days 8    
Growing Degree Days 22 (Base 50)    
Moisture  
Dew Point 70 °F    
Average Humidity 99    
Maximum Humidity 100    
Minimum Humidity 79    
Precipitation  
Precipitation 0.01 in - - ()
Sea Level Pressure  
Sea Level Pressure 30.20 in    
Wind  
Wind Speed 5 mph (East)    
Max Wind Speed 14 mph    
Max Gust Speed 18 mph    
Visibility 4 miles    
Events Fog , Rain    
Averages and records for this station are not official NWS values.
T = Trace of Precipitation, MM = Missing Value Source: NWS Daily Summary

Daily Weather History Graph

Daily Weather History Graph

Search for Another Location

Airport or City:

Trip Planner

Search our weather history database for the weather conditions in past years. The results will help you decide how hot, cold, wet, or windy it might be!

Date:

Astronomy

Nov. 21, 2011 Rise Set
Actual Time 6:26 AM CST 4:56 PM CST
Civil Twilight 6:00 AM CST 5:22 PM CST
Nautical Twilight 5:31 AM CST 5:51 PM CST
Astronomical Twilight 5:02 AM CST 6:20 PM CST
Moon 2:18 AM CST (11/21) 2:06 PM CST (11/21)
Length of Visible Light 11h 21m
Length of Day
10h 30m
Waning Crescent, 17% of the Moon is Illuminated
Nov 21
Waning Crescent
Nov 25
New
Dec 2
First Quarter
Dec 10
Full
Dec 17
Last Quarter

Hourly Weather History & Observations

Time (CST) Temp. Dew Point Humidity Pressure Visibility Wind Dir Wind Speed Gust Speed Precip Events Conditions
12:55 AM 68.5 °F 68.5 °F 100% 30.20 in 10.0 mi SE 5.8 mph - N/A   Clear
1:55 AM 69.4 °F 69.4 °F 100% 30.18 in 10.0 mi SSE 8.1 mph - N/A   Partly Cloudy
2:32 AM 69.8 °F 69.8 °F 100% 30.18 in 10.0 mi Variable 4.6 mph - N/A   Partly Cloudy
2:41 AM 69.8 °F 69.8 °F 100% 30.18 in 10.0 mi ESE 4.6 mph - N/A   Mostly Cloudy
2:55 AM 69.3 °F 69.3 °F 100% 30.19 in 2.5 mi ESE 4.6 mph - N/A   Mostly Cloudy
2:56 AM 69.8 °F 69.8 °F 100% 30.19 in 2.0 mi ESE 5.8 mph - N/A   Overcast
2:58 AM 69.8 °F 69.8 °F 100% 30.19 in 1.8 mi East 4.6 mph - N/A   Overcast
2:59 AM 69.8 °F 69.8 °F 100% 30.19 in 1.5 mi Variable 4.6 mph - N/A   Overcast
3:03 AM 69.8 °F 69.8 °F 100% 30.19 in 1.2 mi East 3.5 mph - N/A   Overcast
3:06 AM 69.8 °F 69.8 °F 100% 30.19 in 1.0 mi East 4.6 mph - N/A   Mist
3:08 AM 69.8 °F 69.8 °F 100% 30.19 in 1.0 mi ENE 3.5 mph - N/A   Mist
3:09 AM 69.8 °F 69.8 °F 100% 30.19 in 0.8 mi East 3.5 mph - N/A   Mist
3:13 AM 68.0 °F 68.0 °F 100% 30.19 in 0.8 mi ENE 4.6 mph - N/A   Mist
3:15 AM 68.0 °F 68.0 °F 100% 30.19 in 0.8 mi ENE 4.6 mph - N/A   Mist
3:25 AM 68.0 °F 68.0 °F 100% 30.19 in 0.5 mi ENE 3.5 mph - N/A Fog Fog
3:26 AM 68.0 °F 68.0 °F 100% 30.19 in 0.5 mi ENE 3.5 mph - N/A Fog Fog
3:27 AM 68.0 °F 68.0 °F 100% 30.19 in 0.5 mi ENE 3.5 mph - N/A Fog Fog
3:28 AM 68.0 °F 68.0 °F 100% 30.19 in 0.5 mi ENE 3.5 mph - N/A Fog Fog
3:30 AM 68.0 °F 68.0 °F 100% 30.19 in 0.5 mi ENE 3.5 mph - N/A Fog Fog
3:32 AM 68.0 °F 68.0 °F 100% 30.19 in 0.5 mi ENE 4.6 mph - N/A Fog Fog
3:38 AM 68.0 °F 68.0 °F 100% 30.19 in 0.5 mi NNE 4.6 mph - N/A Fog Fog
3:39 AM 68.0 °F 68.0 °F 100% 30.19 in 0.5 mi NNE 4.6 mph - N/A Fog Fog
3:41 AM 68.0 °F 68.0 °F 100% 30.19 in 0.5 mi NNE 4.6 mph - N/A Fog Fog
3:42 AM 68.0 °F 68.0 °F 100% 30.19 in 0.5 mi NNE 4.6 mph - N/A Fog Fog
3:45 AM 68.0 °F 68.0 °F 100% 30.20 in 0.8 mi North 3.5 mph - N/A   Mist
3:49 AM 68.0 °F 68.0 °F 100% 30.20 in 1.0 mi NNE 3.5 mph - N/A   Mist
3:52 AM 68.0 °F 68.0 °F 100% 30.20 in 1.2 mi North 3.5 mph - N/A   Overcast
3:55 AM 67.6 °F 67.6 °F 100% 30.20 in 1.2 mi North 3.5 mph - N/A   Overcast
3:56 AM 68.0 °F 68.0 °F 100% 30.20 in 1.5 mi North 3.5 mph - N/A   Overcast
3:57 AM 68.0 °F 68.0 °F 100% 30.20 in 1.5 mi North 3.5 mph - N/A   Overcast
3:59 AM 68.0 °F 68.0 °F 100% 30.20 in 1.8 mi North 3.5 mph - N/A   Overcast
4:04 AM 68.0 °F 68.0 °F 100% 30.20 in 2.0 mi Calm Calm - N/A   Overcast
4:28 AM 68.0 °F 68.0 °F 100% 30.20 in 2.5 mi NNE 4.6 mph - N/A   Overcast
4:32 AM 68.0 °F 68.0 °F 100% 30.20 in 2.0 mi NNE 4.6 mph - N/A   Overcast
4:39 AM 68.0 °F 68.0 °F 100% 30.20 in 1.8 mi ENE 3.5 mph - N/A   Overcast
4:43 AM 68.0 °F 68.0 °F 100% 30.20 in 1.5 mi East 3.5 mph - N/A   Overcast
4:47 AM 68.0 °F 68.0 °F 100% 30.20 in 1.2 mi East 3.5 mph - N/A   Overcast
4:51 AM 68.0 °F 68.0 °F 100% 30.20 in 1.0 mi Calm Calm - N/A   Mist
4:55 AM 67.8 °F 67.8 °F 100% 30.20 in 0.8 mi Calm Calm - N/A   Mist
4:59 AM 68.0 °F 68.0 °F 100% 30.20 in 0.5 mi Calm Calm - N/A Fog Fog
5:00 AM 68.0 °F 68.0 °F 100% 30.20 in 0.5 mi Calm Calm - N/A Fog Fog
5:01 AM 68.0 °F 68.0 °F 100% 30.20 in 0.5 mi Calm Calm - N/A Fog Fog
5:02 AM 68.0 °F 68.0 °F 100% 30.20 in 0.5 mi East 3.5 mph - N/A Fog Fog
5:03 AM 68.0 °F 68.0 °F 100% 30.20 in 0.5 mi East 3.5 mph - N/A Fog Fog
5:04 AM 68.0 °F 68.0 °F 100% 30.20 in 0.5 mi East 3.5 mph - N/A Fog Fog
5:46 AM 68.0 °F 68.0 °F 100% 30.22 in 0.5 mi Calm Calm - N/A Fog Fog
5:55 AM 68.2 °F 68.2 °F 100% 30.22 in 0.5 mi NNE 3.5 mph - N/A Fog Fog
6:01 AM 68.0 °F 68.0 °F 100% 30.22 in 0.5 mi NE 3.5 mph - N/A Fog Fog
6:15 AM 68.0 °F 68.0 °F 100% 30.22 in 0.5 mi East 4.6 mph - N/A Fog Fog
6:17 AM 68.0 °F 68.0 °F 100% 30.22 in 0.5 mi East 4.6 mph - N/A Fog Fog
6:25 AM 68.0 °F 68.0 °F 100% 30.22 in 0.2 mi ENE 4.6 mph - N/A Fog Fog
6:29 AM 68.0 °F 68.0 °F 100% 30.22 in 0.2 mi ENE 4.6 mph - N/A Fog Fog
6:33 AM 68.0 °F 68.0 °F 100% 30.22 in 0.2 mi ENE 4.6 mph - N/A Fog Fog
6:37 AM 68.0 °F 68.0 °F 100% 30.22 in 0.2 mi East 4.6 mph - N/A Fog Fog
6:50 AM 68.0 °F 68.0 °F 100% 30.22 in 0.2 mi East 4.6 mph - N/A Fog Fog
6:55 AM 68.5 °F 68.5 °F 100% 30.22 in 0.2 mi East 4.6 mph - N/A Fog Fog
7:14 AM 68.0 °F 68.0 °F 100% 30.22 in 0.2 mi East 5.8 mph - N/A Fog Fog
7:15 AM 68.0 °F 68.0 °F 100% 30.22 in 0.2 mi ESE 5.8 mph - N/A Fog Fog
7:55 AM 68.9 °F 68.9 °F 100% 30.25 in 0.2 mi ENE 5.8 mph - N/A Fog Fog
8:10 AM 69.8 °F 69.8 °F 100% 30.25 in 0.5 mi ENE 5.8 mph - N/A Fog Fog
8:15 AM 69.8 °F 69.8 °F 100% 30.25 in 0.8 mi ENE 4.6 mph - N/A   Mist
8:18 AM 69.8 °F 69.8 °F 100% 30.25 in 1.5 mi ENE 4.6 mph - N/A   Overcast
8:19 AM 69.8 °F 69.8 °F 100% 30.26 in 1.8 mi ENE 4.6 mph - N/A   Overcast
8:21 AM 69.8 °F 69.8 °F 100% 30.26 in 2.5 mi NE 3.5 mph - N/A   Overcast
8:34 AM 69.8 °F 69.8 °F 100% 30.26 in 3.0 mi ENE 4.6 mph - N/A   Mostly Cloudy
8:40 AM 69.8 °F 69.8 °F 100% 30.26 in 5.0 mi East 4.6 mph - N/A   Overcast
8:55 AM 70.9 °F 70.9 °F 100% 30.26 in 7.0 mi East 5.8 mph - N/A   Overcast
9:29 AM 69.8 °F 69.8 °F 100% 30.26 in 9.0 mi East 4.6 mph - N/A   Mostly Cloudy
9:32 AM 71.6 °F 71.6 °F 100% 30.26 in 8.0 mi East 5.8 mph - N/A   Overcast
9:35 AM 71.6 °F 71.6 °F 100% 30.26 in 7.0 mi East 5.8 mph - N/A Rain Light Rain
9:37 AM 71.6 °F 71.6 °F 100% 30.26 in 6.0 mi East 5.8 mph - N/A Rain Light Rain
9:39 AM 71.6 °F 71.6 °F 100% 30.26 in 4.0 mi East 5.8 mph - N/A Rain Light Rain
9:46 AM 71.6 °F 71.6 °F 100% 30.26 in 4.0 mi East 5.8 mph - N/A Rain Light Rain
9:52 AM 71.6 °F 71.6 °F 100% 30.26 in 9.0 mi East 5.8 mph - N/A   Mostly Cloudy
9:53 AM 71.6 °F 71.6 °F 100% 30.26 in 9.0 mi East 4.6 mph - N/A   Mostly Cloudy
9:55 AM 71.8 °F 71.8 °F 100% 30.26 in 10.0 mi East 3.5 mph - 0.01 in   Mostly Cloudy
9:57 AM 71.6 °F 71.6 °F 100% 30.26 in 10.0 mi East 5.8 mph - N/A   Mostly Cloudy
10:11 AM 73.4 °F 73.4 °F 100% 30.26 in 10.0 mi East 4.6 mph - N/A   Mostly Cloudy
10:27 AM 73.4 °F 73.4 °F 100% 30.25 in 10.0 mi East 4.6 mph - N/A   Mostly Cloudy
10:47 AM 75.2 °F 75.2 °F 100% 30.24 in 10.0 mi SE 8.1 mph - N/A   Mostly Cloudy
10:55 AM 75.4 °F 75.4 °F 100% 30.23 in 10.0 mi SE 10.4 mph - N/A   Scattered Clouds
11:55 AM 77.9 °F 72.1 °F 82% 30.20 in 10.0 mi SE 9.2 mph - N/A   Partly Cloudy
12:55 PM 77.4 °F 71.2 °F 81% 30.17 in 10.0 mi SE 13.8 mph - N/A   Clear
1:55 PM 78.1 °F 71.1 °F 79% 30.15 in 10.0 mi SE 10.4 mph - N/A   Clear
2:55 PM 77.0 °F 71.2 °F 82% 30.13 in 10.0 mi SE 9.2 mph - N/A   Clear
3:55 PM 74.3 °F 71.6 °F 91% 30.13 in 10.0 mi ESE 6.9 mph - N/A   Mostly Cloudy
4:55 PM 72.9 °F 72.7 °F 99% 30.12 in 10.0 mi ESE 9.2 mph - N/A   Scattered Clouds
5:55 PM 71.8 °F 71.8 °F 100% 30.12 in 10.0 mi ESE 8.1 mph - N/A   Scattered Clouds
6:10 PM 71.6 °F 71.6 °F 100% 30.11 in 10.0 mi ESE 9.2 mph - N/A   Overcast
6:55 PM 71.2 °F 71.2 °F 100% 30.12 in 10.0 mi SE 10.4 mph - N/A   Mostly Cloudy
7:26 PM 71.6 °F 71.6 °F 100% 30.12 in 10.0 mi SE 11.5 mph - N/A   Mostly Cloudy
7:55 PM 70.3 °F 70.3 °F 100% 30.12 in 5.0 mi SE 10.4 mph - N/A   Overcast
8:31 PM 69.8 °F 69.8 °F 100% 30.12 in 10.0 mi SE 9.2 mph - N/A   Overcast
8:55 PM 70.5 °F 70.5 °F 100% 30.11 in 5.0 mi SE 10.4 mph - N/A   Overcast
9:16 PM 69.8 °F 69.8 °F 100% 30.10 in 5.0 mi ESE 9.2 mph - N/A   Overcast
9:41 PM 69.8 °F 69.8 °F 100% 30.11 in 2.5 mi SE 8.1 mph - N/A   Overcast
9:55 PM 69.8 °F 69.8 °F 100% 30.11 in 3.0 mi ESE 8.1 mph - N/A   Overcast
10:42 PM 69.8 °F 69.8 °F 100% 30.11 in 10.0 mi SE 10.4 mph - N/A   Overcast
10:55 PM 70.0 °F 70.0 °F 100% 30.11 in 10.0 mi ESE 8.1 mph - N/A   Overcast
11:00 PM 69.8 °F 69.8 °F 100% 30.10 in 10.0 mi ESE 8.1 mph - N/A   Overcast
11:02 PM 69.8 °F 69.8 °F 100% 30.10 in 10.0 mi SE 8.1 mph - N/A   Overcast
11:19 PM 69.8 °F 69.8 °F 100% 30.09 in 10.0 mi SE 12.7 mph 18.4 mph N/A   Scattered Clouds
11:55 PM 70.5 °F 70.5 °F 100% 30.07 in 10.0 mi SE 11.5 mph - N/A   Clear